Content
SEND FEEDBACK

Daily
Averages
Monthly
Summary
United States of America

GARDENDALE, TEXAS


Home > North America > United States > Texas
Elevation: 3171 feet     Latitude: 32 19N     Longitude: 102 32W

WEATHER
 
SELECT A DAY
Number of Records: 54,431;   Date Range: 4/17/12 - 9/29/14
 
SHARE

PRINT THIS DATA

[ ← Previous Day ]
WEATHER ALMANAC - JULY 4, 2014
[ Next Day → ]
[ °C ]   °F
Weather ElementAverageHighLow
Temperature80 °F92.5 °F (4:55 pm)64.9 °F (6:35 am)
Dewpoint55 °F61.7 °F (12:55 am)45.3 °F (1:55 pm)
Humidity47.1 %86 % (7:55 pm)21 % (1:55 pm)
Barometer30.21 in30.26 in (11:15 am)30.15 in (9:35 am)
Wind Speed10.3 mph19.6 mph (5:15 pm)
Wind Gust28.8 mph (7:35 pm)
Weather ElementAverage
Visibility9.9 mi
Wind DirectionSSE (149.3 °)

Weather ElementTotal
Precipitation---
Cooling Degree Days13.7 (Base 65)
Growing Degree Days28.7 (Base 50)
Averaged from 71 records on July 4, 2014
WEATHER CONDITIONS BREAKOUT
WIND DIRECTION BREAKOUT
WEATHER BY HOUR - JULY 4, 2014
[ °C ]   °F
Local TimeTemperatureDewpointHumidityBarometerVisibilityWind DirectionWind SpeedGust SpeedPrecipitationEventsConditions
12:15 AM73.4 °F55.8 °F54 %30.20 in10.0 miSSE (160°)4.6 mphClear
12:35 AM73.6 °F55.2 °F53 %30.21 in10.0 miSSE (160°)4.6 mphClear
12:55 AM72.5 °F54.7 °F53 %30.22 in10.0 miESE (110°)8.1 mphClear
1:15 AM73.4 °F53.8 °F50 %30.22 in10.0 miESE (120°)9.2 mphClear
1:35 AM73.4 °F57.7 °F58 %30.22 in10.0 miSE (130°)11.5 mphClear
1:55 AM72.3 °F58.6 °F62 %30.22 in10.0 miESE (120°)9.2 mphClear
2:15 AM71.8 °F60.1 °F67 %30.22 in10.0 miESE (120°)9.2 mphClear
2:35 AM71.2 °F61.0 °F70 %30.21 in10.0 miESE (120°)9.2 mphClear
2:55 AM70.7 °F61.3 °F72 %30.21 in10.0 miESE (120°)10.4 mphClear
3:15 AM70.3 °F61.5 °F74 %30.21 in10.0 miESE (120°)8.1 mphClear
3:35 AM69.8 °F61.5 °F75 %30.21 in10.0 miESE (120°)6.9 mphClear
3:55 AM69.3 °F61.5 °F76 %30.21 in10.0 miESE (120°)6.9 mphClear
4:15 AM68.5 °F61.3 °F78 %30.21 in10.0 miESE (110°)5.8 mphClear
4:35 AM68.0 °F61.3 °F79 %30.21 in10.0 miESE (120°)6.9 mphClear
4:55 AM68.0 °F61.7 °F80 %30.21 in10.0 miESE (120°)6.9 mphClear
5:15 AM67.5 °F61.7 °F82 %30.21 in10.0 miSE (130°)6.9 mphClear
5:35 AM66.9 °F61.5 °F83 %30.21 in10.0 miESE (120°)5.8 mphClear
5:55 AM66.2 °F61.2 °F84 %30.21 in10.0 miSE (140°)4.6 mphClear
6:15 AM65.5 °F60.8 °F85 %30.22 in10.0 miSE (130°)4.6 mphClear
6:35 AM64.9 °F60.8 °F86 %30.23 in10.0 miSE (130°)4.6 mphClear
6:55 AM64.9 °F60.3 °F85 %30.23 in10.0 miCalmClear
7:15 AM65.3 °F60.1 °F83 %30.23 in10.0 miESE (120°)3.5 mphClear
7:35 AM66.4 °F60.3 °F81 %30.24 in10.0 miCalmClear
7:55 AM68.7 °F60.1 °F74 %30.25 in10.0 miESE (120°)4.6 mphClear
8:15 AM70.5 °F59.9 °F69 %30.25 in10.0 miSE (140°)5.8 mphClear
8:35 AM72.7 °F59.5 °F63 %30.26 in10.0 miSSE (150°)11.5 mphClear
8:55 AM74.7 °F60.1 °F60 %30.26 in10.0 miSouth (170°)11.5 mph16.1 mphClear
9:15 AM75.6 °F60.3 °F59 %30.26 in10.0 miSouth (180°)10.4 mph17.3 mphClear
9:35 AM76.3 °F60.4 °F58 %30.26 in10.0 miSouth (190°)9.2 mph18.4 mphClear
9:55 AM77.9 °F60.4 °F55 %30.26 in10.0 miSouth (180°)12.7 mph20.7 mphClear
10:15 AM79.7 °F60.3 °F51 %30.26 in10.0 miSouth (180°)13.8 mph19.6 mphClear
10:35 AM81.1 °F60.3 °F49 %30.25 in10.0 miSSE (160°)11.5 mph19.6 mphClear
10:50 AM81.9 °F59.9 °F47 %30.25 in10.0 miSouth (180°)12.7 mph23.0 mphClear
11:15 AM83.1 °F59.0 °F44 %30.24 in10.0 miSouth (190°)16.1 mph23.0 mphClear
11:35 AM84.9 °F57.7 °F39 %30.24 in10.0 miSouth (190°)12.7 mph20.7 mphClear
11:55 AM85.5 °F57.7 °F39 %30.24 in5.0 miSouth (170°)15.0 mph19.6 mphHaze
12:15 PM87.1 °F58.3 °F38 %30.24 in10.0 miSSE (160°)11.5 mph17.3 mphClear
12:35 PM87.3 °F57.6 °F36 %30.23 in10.0 miSouth (180°)12.7 mph25.3 mphScattered Clouds
12:55 PM86.5 °F57.2 °F37 %30.23 in10.0 miSouth (170°)11.5 mph19.6 mphScattered Clouds
1:15 PM88.5 °F55.4 °F32 %30.23 in10.0 miSouth (170°)15.0 mph23.0 mphScattered Clouds
1:35 PM89.2 °F53.8 °F30 %30.23 in10.0 miSouth (170°)11.5 mph21.9 mphClear
1:55 PM89.6 °F54.5 °F30 %30.21 in10.0 miSouth (180°)9.2 mph19.6 mphScattered Clouds
2:15 PM90.9 °F54.3 °F29 %30.21 in10.0 miSSE (160°)13.8 mph23.0 mphClear
2:35 PM90.9 °F53.4 °F28 %30.21 in10.0 miSSE (150°)11.5 mph19.6 mphScattered Clouds
2:55 PM90.9 °F52.9 °F27 %30.20 in10.0 miSouth (170°)11.5 mph20.7 mphClear
3:15 PM91.4 °F51.1 °F25 %30.19 in10.0 miSouth (170°)8.1 mph27.6 mphClear
3:35 PM92.1 °F50.7 °F24 %30.19 in10.0 miSouth (170°)12.7 mph25.3 mphScattered Clouds
3:55 PM92.5 °F50.2 °F24 %30.19 in10.0 miSouth (180°)16.1 mph23.0 mphClear
4:15 PM91.9 °F48.7 °F23 %30.18 in10.0 miSouth (170°)11.5 mph26.5 mphClear
4:35 PM91.9 °F47.8 °F22 %30.18 in10.0 miSSE (160°)16.1 mph26.5 mphClear
4:55 PM92.3 °F48.2 °F22 %30.17 in10.0 miSouth (170°)15.0 mph26.5 mphClear
5:15 PM91.9 °F47.7 °F22 %30.16 in10.0 miSouth (170°)15.0 mph26.5 mphScattered Clouds
5:35 PM92.5 °F47.7 °F21 %30.16 in10.0 miSouth (180°)11.5 mph24.2 mphClear
5:55 PM92.3 °F48.6 °F22 %30.16 in10.0 miSouth (180°)15.0 mph23.0 mphClear
6:15 PM91.4 °F49.1 °F23 %30.15 in10.0 miSSE (150°)19.6 mph26.5 mphScattered Clouds
6:35 PM91.0 °F48.6 °F23 %30.15 in10.0 miSE (140°)17.3 mph28.8 mphScattered Clouds
6:55 PM90.3 °F47.5 °F23 %30.15 in10.0 miSSE (160°)11.5 mph20.7 mphClear
7:15 PM90.0 °F46.4 °F22 %30.15 in10.0 miSSE (160°)18.4 mph23.0 mphClear
7:35 PM89.1 °F46.0 °F22 %30.15 in10.0 miSSE (150°)15.0 mph25.3 mphClear
7:55 PM88.2 °F45.3 °F23 %30.15 in10.0 miSSE (160°)15.0 mph20.7 mphClear
8:15 PM87.3 °F45.9 °F24 %30.16 in10.0 miSSE (160°)12.7 mph19.6 mphClear
8:35 PM86.2 °F46.8 °F25 %30.16 in10.0 miSSE (160°)11.5 mph20.7 mphClear
8:55 PM85.1 °F47.3 °F27 %30.16 in10.0 miSSE (160°)12.7 mphClear
9:15 PM84.0 °F48.0 °F28 %30.16 in10.0 miSSE (160°)10.4 mphClear
9:35 PM83.1 °F48.4 °F30 %30.17 in10.0 miSSE (160°)10.4 mphClear
9:55 PM82.4 °F48.7 °F31 %30.17 in10.0 miSSE (160°)11.5 mphClear
10:15 PM81.5 °F49.1 °F32 %30.18 in10.0 miSSE (160°)9.2 mphClear
10:35 PM80.8 °F49.1 °F33 %30.18 in10.0 miSSE (160°)10.4 mph16.1 mphClear
11:15 PM78.8 °F49.1 °F35 %30.20 in10.0 miSSE (160°)6.9 mphClear
11:35 PM77.5 °F49.3 °F37 %30.21 in10.0 miSouth (170°)6.9 mphClear
11:55 PM77.0 °F49.6 °F38 %30.20 in10.0 miSouth (170°)6.9 mphClear
Hourly data recorded from KE11, located miles away from Gardendale, Texas







STORIES FROM OUR PARTNERS